Flag for Spain Weather past 2 weeks in Torrevieja, Spain

Now
70 °F

Passing clouds.


Feels Like: 70 °F
Forecast: 58 / 73 °F
Wind: 14 mph from Southwest

Location: Murcia / San Javier


UV Index: 5 (Moderate)

Visibility: N/A


Pressure: 29.62 "Hg

Humidity: 46%

Dew point: 48 °F

Location of TorreviejaLocation

Historic Weather in Torrevieja

°F

Torrevieja temperature yesterday

Maximum temperature yesterday: 79 °F (at 1:00 PM)
Minimum temperature yesterday: 59 °F (at 8:00 AM)
Average temperature yesterday: 70 °F

Past Weeks' High & Low Weather Summary

 TemperatureHumidityPressure
High79 °F (Apr 19, 1:00 PM)100% (Apr 8, 7:00 AM)30.21 "Hg (Apr 8, 7:00 AM)
Low50 °F (Apr 10, 7:00 AM)31% (Apr 20, 11:00 AM)29.56 "Hg (Apr 19, 7:00 PM)
Average66 °F71%30.00 "Hg
* Reported Apr 5 9:00 PM — Apr 20 9:00 PM, Torrevieja, Weather by CustomWeather, © 2014

Note: Actual official high and low records may vary slightly from our data, if they occured in-between our weather recording intervals... More about our weather records

Advertising

Historic Weather Conditions — Data for Previous 24 hours

 ConditionsComfort  
Time TempWeatherWind HumidityBarometerVisibility
9:00 PM
Apr 20
70 °FPassing clouds.14 mph46%29.62 "HgN/A
8:00 PM73 °FPassing clouds.14 mph38%29.59 "HgN/A
7:00 PM72 °FPassing clouds.13 mph57%29.59 "HgN/A
6:00 PM72 °FPassing clouds.20 mph57%29.59 "HgN/A
5:00 PM73 °FPassing clouds.20 mph50%29.59 "HgN/A
4:00 PM73 °FPassing clouds.20 mph50%29.62 "HgN/A
3:00 PM75 °FPassing clouds.18 mph36%29.62 "HgN/A
2:00 PM73 °FPassing clouds.17 mph41%29.65 "HgN/A
1:00 PM75 °FPassing clouds.13 mph34%29.65 "HgN/A
12:00 PM72 °FPassing clouds.16 mph44%29.68 "HgN/A
11:00 AM72 °FPassing clouds.9 mph31%29.68 "HgN/A
10:00 AM68 °FPassing clouds.8 mph40%29.68 "HgN/A
9:00 AM64 °FPassing clouds.5 mph52%29.68 "HgN/A
8:00 AM55 °FPassing clouds.6 mph88%29.68 "HgN/A
11:00 PM
Apr 19
66 °FPassing clouds.7 mph68%29.59 "HgN/A
10:00 PM68 °FPassing clouds.10 mph56%29.56 "HgN/A
Weather by CustomWeather, © 2014

See weather overview